[[{"header":{"parameterUnit":"m.s-1","parameterCategory":1,"la1":30.2991,"la2":30.254,"lo1":-89.0895,"lo2":-89.0444,"dy":0.0017,"dx":0.0017,"nx":28,"ny":28,"refTime":"2024-10-02T09:00:00:Z","depth":0,"parameterNumber":2,"parameterNumberName":"U-component_of_WINDS"},"data":[0,0,0,0,0,0,0,0,0,0,0,0,0,0,0,0,0,0,0,0,0,0,0,0,0,0,0,0,0,0,0,0,0,0,0,0,0,0,0,0,0,0,0,0,0,0,0,0,0,0,0,0,0,0,0,0,0,0,-2.473,-2.4729,0,-2.4659,-2.4658,-2.4657,-2.4591,-2.4591,-2.459,-2.4589,-2.4515,-2.4514,-2.4513,0,0,0,0,0,0,0,0,0,0,0,0,0,-2.4811,-2.481,-2.473,-2.4729,-2.4729,-2.4659,-2.4658,-2.4657,-2.4592,-2.4591,-2.459,-2.4589,-2.4516,-2.4514,-2.4513,0,0,0,0,0,0,0,0,0,0,0,0,0,-2.4761,-2.4809,-2.473,-2.4688,-2.4683,-2.4659,-2.4658,-2.4656,-2.4592,-2.4591,-2.4589,-2.4588,-2.4516,-2.4514,-2.4513,-2.4525,0,0,-2.4507,-2.4506,0,0,0,0,0,0,0,0,-2.4764,-2.4758,-2.4695,-2.4691,-2.4685,-2.4633,-2.4659,-2.4612,-2.4592,-2.4626,-2.4589,-2.4588,-2.4555,-2.455,-2.4539,-2.4521,-2.4518,-2.4507,-2.4506,-2.4505,-2.4504,0,0,0,0,0,0,0,-2.4768,-2.4761,-2.4702,-2.4694,-2.4688,-2.4672,-2.4664,-2.465,-2.4598,-2.4623,-2.4618,-2.4611,-2.4552,-2.4541,-2.4537,-2.4517,-2.4507,-2.4505,-2.4504,-2.4503,-2.4506,-2.4508,0,0,0,0,0,0,-2.4778,-2.4764,-2.4704,-2.47,-2.4723,-2.4672,-2.4662,-2.4651,-2.4598,-2.4589,-2.4612,-2.4608,-2.4545,-2.4539,-2.4534,-2.4545,-2.4505,-2.4503,-2.4502,-2.4505,-2.4507,-2.4508,0,0,0,0,0,0,-2.478,-2.4773,-2.4707,-2.4731,-2.4721,-2.4671,-2.4659,-2.465,-2.4639,-2.459,-2.458,-2.461,-2.4544,-2.4537,-2.4528,-2.4542,-2.4502,-2.4501,-2.4504,-2.4506,-2.4507,-2.4568,0,0,0,0,0,0,-2.4782,-2.4774,-2.4778,-2.4731,-2.472,-2.4702,-2.466,-2.4649,-2.4636,-2.463,-2.4585,-2.4577,-2.4542,-2.4531,-2.4526,-2.4539,-2.4499,-2.4502,-2.4505,-2.4507,-2.4565,-2.4572,-2.4578,0,0,0,0,0,-2.4785,-2.4798,-2.4779,-2.4772,-2.4724,-2.4703,-2.4696,-2.4657,-2.4637,-2.4641,-2.461,-2.4578,-2.4541,-2.4531,-2.4524,-2.4537,-2.4501,-2.4504,-2.4507,-2.4562,-2.457,-2.4578,0,0,0,0,0,0,-2.4847,-2.4791,-2.4769,-2.4766,-2.474,-2.4692,-2.4695,-2.4667,-2.4645,-2.4641,-2.4593,-2.4583,-2.458,-2.4557,-2.4546,-2.4546,-2.4517,-2.4519,-2.4561,-2.4569,-2.4575,-2.4581,-2.4498,0,0,0,0,0,-2.486,-2.4848,-2.4799,-2.4802,-2.479,-2.4745,-2.4734,-2.4706,-2.4677,-2.4665,-2.4633,-2.4606,-2.4588,-2.4577,-2.4558,-2.4561,-2.4551,-2.4567,-2.4574,-2.4579,-2.4581,-2.4582,-2.4589,-2.4517,-2.4517,-2.4517,0,0,-2.4887,-2.4855,-2.485,-2.4813,-2.479,-2.4778,-2.4736,-2.4725,-2.4716,-2.4663,-2.4653,-2.4629,-2.4595,-2.4593,-2.459,-2.4574,-2.4599,-2.4583,-2.4588,-2.4586,-2.4586,-2.4592,-2.4598,-2.4519,-2.4518,-2.4518,0,0,-2.4931,-2.4905,-2.4905,-2.4882,-2.4847,-2.4817,-2.4818,-2.4774,-2.4756,-2.4745,-2.4706,-2.4694,-2.4665,-2.4642,-2.4627,-2.4664,-2.4635,-2.466,-2.4694,-2.4696,-2.4701,-2.4706,-2.472,-2.4725,-2.4662,-2.4662,-2.4662,0,-2.4969,-2.495,-2.4908,-2.49,-2.4885,-2.4838,-2.4837,-2.4817,-2.4778,-2.4769,-2.4751,-2.4714,-2.4688,-2.468,-2.4689,-2.4678,-2.4677,-2.4664,-2.4704,-2.4708,-2.4712,-2.4724,-2.473,-2.4665,-2.4665,-2.4664,-2.4664,0,-2.4999,-2.4986,-2.499,-2.4954,-2.494,-2.4935,-2.4893,-2.4884,-2.4858,-2.483,-2.482,-2.4787,-2.4761,-2.4757,-2.4731,-2.4746,-2.4737,-2.4713,-2.4682,-2.4723,-2.4734,-2.4738,-2.467,-2.4669,-2.4668,-2.4667,0,0,-2.5078,-2.5019,-2.5022,-2.5005,-2.4963,-2.4953,-2.4947,-2.4922,-2.4915,-2.489,-2.4884,-2.4861,-2.4838,-2.4821,-2.4792,-2.4793,-2.4826,-2.4768,-2.4767,-2.4781,-2.4841,-2.486,-2.4866,-2.4806,-2.4807,-2.4807,-2.4844,0,-2.5114,-2.5101,-2.5064,-2.5062,-2.505,-2.5006,-2.5001,-2.4975,-2.4949,-2.4936,-2.4907,-2.4892,-2.4863,-2.4853,-2.4852,-2.4822,-2.4837,-2.4819,-2.48,-2.48,-2.481,-2.4871,-2.4891,-2.4927,-2.4848,-2.4848,-2.4849,0,-2.5155,-2.5133,-2.5131,-2.509,-2.5084,-2.508,-2.5055,-2.5042,-2.5013,-2.4994,-2.4976,-2.4944,-2.4936,-2.4909,-2.4897,-2.4885,-2.4876,-2.486,-2.486,-2.4857,-2.4827,-2.487,-2.4937,-2.4942,-2.4855,-2.4855,-2.4854,0,-2.5213,-2.5183,-2.5178,-2.5165,-2.5118,-2.5117,-2.5097,-2.5066,-2.5054,-2.5032,-2.5023,-2.5001,-2.4988,-2.4972,-2.4935,-2.4918,-2.4928,-2.4897,-2.4913,-2.4914,-2.4916,-2.4916,-2.4983,-2.491,-2.491,-2.491,-2.491,0,-2.5258,-2.5258,-2.5204,-2.52,-2.5199,-2.5157,-2.5157,-2.5134,-2.5107,-2.5098,-2.5058,-2.5051,-2.5003,-2.4991,-2.4962,-2.4958,-2.4952,-2.4937,-2.493,-2.4941,-2.4943,-2.4933,-2.493,-2.4912,-2.4911,-2.4911,-2.4911,0,-2.5323,-2.5286,-2.5277,-2.5234,-2.5224,-2.5225,-2.5188,-2.5183,-2.5156,-2.5146,-2.5141,-2.5098,-2.5082,-2.5044,-2.5017,-2.4998,-2.5,-2.4986,-2.501,-2.5006,-2.5024,-2.5023,-2.5086,-2.5093,-2.5017,-2.5017,-2.5018,0,-2.5353,-2.5352,-2.531,-2.5301,-2.5284,-2.5271,-2.5258,-2.5217,-2.5206,-2.5173,-2.5172,-2.5153,-2.5135,-2.5111,-2.5077,-2.5057,-2.5042,-2.5066,-2.5039,-2.5051,-2.5043,-2.5044,-2.5044,-2.5072,-2.5073,-2.5074,-2.5075,0,-2.5412,-2.5394,-2.5378,-2.5356,-2.5343,-2.5323,-2.5301,-2.5297,-2.5251,-2.524,-2.5223,-2.5209,-2.5183,-2.5164,-2.5139,-2.5119,-2.509,-2.5084,-2.5086,-2.5098,-2.5112,-2.5105,-2.5027,-2.5082,-2.5082,-2.5081,-2.5081,-2.508,-2.546,-2.5458,-2.5428,-2.5412,-2.5391,-2.5372,-2.5366,-2.5339,-2.5324,-2.5299,-2.5276,-2.5261,-2.5232,-2.5196,-2.5178,-2.5166,-2.5151,-2.5155,-2.5156,-2.5157,-2.5162,-2.5114,-2.5161,-2.5161,-2.5161,-2.5161,-2.516,0,-2.5517,-2.5496,-2.5482,-2.5453,-2.544,-2.5414,-2.5389,-2.5381,-2.5368,-2.5344,-2.5328,-2.5309,-2.5291,-2.5257,-2.5236,-2.5234,-2.522,-2.523,-2.5229,-2.5225,-2.5177,-2.5177,-2.5241,-2.5241,-2.5241,-2.5241,-2.5241,-2.5241,-2.5545,-2.554,-2.5519,-2.5504,-2.5482,-2.5468,-2.5456,-2.5439,-2.542,-2.54,-2.5385,-2.5364,-2.5336,-2.5313,-2.5296,-2.5286,-2.528,-2.5295,-2.5281,-2.5236,-2.5229,-2.5221,-2.5221,-2.5294,-2.5294,-2.5331,-2.5331,-2.5331]},{"header":{"parameterUnit":"m.s-1","parameterCategory":1,"la1":30.2991,"la2":30.254,"lo1":-89.0895,"lo2":-89.0444,"dy":0.0017,"dx":0.0017,"nx":28,"ny":28,"refTime":"2024-10-02T09:00:00:Z","depth":0,"parameterNumber":3,"parameterNumberName":"V-component_of_WINDS"},"data":[0,0,0,0,0,0,0,0,0,0,0,0,0,0,0,0,0,0,0,0,0,0,0,0,0,0,0,0,0,0,0,0,0,0,0,0,0,0,0,0,0,0,0,0,0,0,0,0,0,0,0,0,0,0,0,0,0,0,-1.2595,-1.2595,0,-1.2529,-1.2528,-1.2528,-1.2493,-1.2493,-1.2493,-1.2493,-1.2423,-1.2421,-1.2419,0,0,0,0,0,0,0,0,0,0,0,0,0,-1.2691,-1.269,-1.2596,-1.2595,-1.2594,-1.2529,-1.2528,-1.2527,-1.2493,-1.2493,-1.2493,-1.2493,-1.2424,-1.2421,-1.2419,0,0,0,0,0,0,0,0,0,0,0,0,0,-1.264,-1.2689,-1.2596,-1.2569,-1.2566,-1.2529,-1.2528,-1.2527,-1.2493,-1.2493,-1.2493,-1.2493,-1.2424,-1.2422,-1.2419,-1.2403,0,0,-1.2411,-1.2409,0,0,0,0,0,0,0,0,-1.2643,-1.2636,-1.2574,-1.2571,-1.2567,-1.2519,-1.2536,-1.2486,-1.2493,-1.2521,-1.2493,-1.2493,-1.2455,-1.245,-1.2437,-1.24,-1.2397,-1.241,-1.2409,-1.2407,-1.2407,0,0,0,0,0,0,0,-1.2646,-1.2639,-1.2569,-1.2573,-1.2569,-1.256,-1.2552,-1.2527,-1.2489,-1.2518,-1.2515,-1.2508,-1.2453,-1.244,-1.2435,-1.2396,-1.241,-1.2408,-1.2406,-1.2405,-1.2344,-1.2344,0,0,0,0,0,0,-1.2654,-1.2642,-1.2571,-1.2567,-1.2606,-1.2558,-1.255,-1.2535,-1.2489,-1.2482,-1.2508,-1.2507,-1.2445,-1.2439,-1.2433,-1.2412,-1.2408,-1.2405,-1.2403,-1.2344,-1.2344,-1.2344,0,0,0,0,0,0,-1.2657,-1.2648,-1.2574,-1.2604,-1.2594,-1.2557,-1.254,-1.2533,-1.252,-1.2482,-1.2475,-1.2502,-1.2444,-1.2437,-1.2411,-1.2409,-1.2404,-1.2401,-1.2344,-1.2344,-1.2344,-1.2371,0,0,0,0,0,0,-1.2659,-1.2649,-1.2643,-1.2604,-1.2592,-1.2554,-1.254,-1.2532,-1.2516,-1.2513,-1.2474,-1.2467,-1.2444,-1.2416,-1.2409,-1.2405,-1.2399,-1.2344,-1.2344,-1.2344,-1.237,-1.2372,-1.2373,0,0,0,0,0,-1.2663,-1.2653,-1.2643,-1.2635,-1.2584,-1.2554,-1.2547,-1.2521,-1.2516,-1.2509,-1.2485,-1.2468,-1.2411,-1.2413,-1.2405,-1.2401,-1.2344,-1.2344,-1.2344,-1.2369,-1.2371,-1.2373,0,0,0,0,0,0,-1.2692,-1.2647,-1.2636,-1.2613,-1.2588,-1.2548,-1.2539,-1.2524,-1.2499,-1.2497,-1.2465,-1.2457,-1.2435,-1.2415,-1.2419,-1.2384,-1.2376,-1.2374,-1.2398,-1.2399,-1.2401,-1.2406,-1.2397,0,0,0,0,0,-1.2696,-1.2676,-1.2637,-1.2621,-1.2609,-1.2576,-1.2562,-1.2544,-1.2516,-1.2505,-1.2479,-1.2452,-1.2428,-1.2412,-1.2388,-1.2367,-1.2358,-1.236,-1.2362,-1.2363,-1.2362,-1.235,-1.2351,-1.2344,-1.2344,-1.2344,0,0,-1.2703,-1.2676,-1.2665,-1.2626,-1.2604,-1.2584,-1.2567,-1.2546,-1.2531,-1.2502,-1.2477,-1.2456,-1.2424,-1.2401,-1.239,-1.2384,-1.2362,-1.2363,-1.2365,-1.2363,-1.235,-1.2351,-1.2352,-1.2344,-1.2344,-1.2344,0,0,-1.2706,-1.2684,-1.2668,-1.2647,-1.2615,-1.2593,-1.259,-1.2553,-1.2538,-1.2513,-1.2491,-1.2472,-1.2431,-1.2409,-1.2393,-1.2389,-1.2373,-1.2382,-1.2391,-1.2379,-1.238,-1.238,-1.2379,-1.2379,-1.2381,-1.2381,-1.2381,0,-1.2719,-1.2688,-1.2661,-1.2642,-1.2625,-1.26,-1.2583,-1.2564,-1.2525,-1.2514,-1.2509,-1.2457,-1.2434,-1.2406,-1.2405,-1.2393,-1.2387,-1.2386,-1.2382,-1.2382,-1.2382,-1.2381,-1.238,-1.2382,-1.2382,-1.2382,-1.2382,0,-1.2706,-1.2685,-1.2676,-1.264,-1.2623,-1.2605,-1.2575,-1.2561,-1.2545,-1.2524,-1.2498,-1.247,-1.2439,-1.2431,-1.2415,-1.2401,-1.2399,-1.2388,-1.2379,-1.2384,-1.2383,-1.2382,-1.2384,-1.2384,-1.2383,-1.2383,0,0,-1.2724,-1.2675,-1.2673,-1.2656,-1.262,-1.2602,-1.2584,-1.2555,-1.2543,-1.2517,-1.2501,-1.2467,-1.2458,-1.2439,-1.242,-1.241,-1.241,-1.2401,-1.24,-1.2404,-1.2393,-1.2401,-1.2401,-1.2399,-1.2399,-1.2399,-1.2396,0,-1.2722,-1.2688,-1.2664,-1.2639,-1.2619,-1.2595,-1.2579,-1.2554,-1.2535,-1.2515,-1.2493,-1.247,-1.2458,-1.2447,-1.2436,-1.2412,-1.2407,-1.2412,-1.2383,-1.2383,-1.2392,-1.24,-1.2409,-1.2407,-1.2395,-1.2395,-1.2395,0,-1.2715,-1.2691,-1.2665,-1.2631,-1.2622,-1.2608,-1.258,-1.2561,-1.2533,-1.252,-1.25,-1.2481,-1.246,-1.2453,-1.2423,-1.2427,-1.2414,-1.2401,-1.24,-1.2396,-1.2389,-1.2397,-1.2406,-1.2406,-1.2393,-1.2394,-1.2394,0,-1.2732,-1.2693,-1.2672,-1.2659,-1.2619,-1.261,-1.2593,-1.2565,-1.255,-1.2525,-1.2515,-1.2488,-1.2473,-1.2453,-1.2427,-1.2424,-1.24,-1.2391,-1.2388,-1.2389,-1.2384,-1.2385,-1.2391,-1.2376,-1.2376,-1.2376,-1.2376,0,-1.2732,-1.2716,-1.268,-1.2667,-1.2649,-1.2622,-1.2605,-1.2585,-1.2561,-1.2544,-1.2521,-1.2505,-1.2472,-1.2452,-1.2432,-1.2411,-1.2404,-1.2393,-1.2388,-1.2395,-1.2396,-1.2386,-1.2385,-1.2376,-1.2376,-1.2376,-1.2376,0,-1.2747,-1.2722,-1.2698,-1.2662,-1.2653,-1.2642,-1.2611,-1.2598,-1.2578,-1.2556,-1.255,-1.2518,-1.2493,-1.2466,-1.2432,-1.2418,-1.2399,-1.2391,-1.2409,-1.2406,-1.2405,-1.2405,-1.2404,-1.2403,-1.2389,-1.2389,-1.2389,0,-1.2748,-1.2736,-1.2701,-1.2688,-1.2672,-1.2652,-1.2637,-1.2609,-1.2594,-1.2562,-1.2553,-1.2527,-1.2505,-1.2467,-1.244,-1.2414,-1.2406,-1.2408,-1.2402,-1.241,-1.2406,-1.2407,-1.2406,-1.2409,-1.2409,-1.241,-1.241,0,-1.2754,-1.2743,-1.2722,-1.2697,-1.268,-1.2659,-1.2637,-1.2627,-1.2596,-1.258,-1.2556,-1.2539,-1.2505,-1.248,-1.2451,-1.2432,-1.2416,-1.2412,-1.241,-1.2417,-1.2428,-1.2423,-1.2413,-1.2412,-1.2412,-1.2412,-1.2412,-1.2412,-1.2763,-1.2751,-1.2725,-1.2703,-1.2684,-1.2664,-1.265,-1.2629,-1.2608,-1.2579,-1.2564,-1.254,-1.2513,-1.2473,-1.2455,-1.2435,-1.243,-1.2427,-1.2426,-1.2426,-1.2428,-1.2432,-1.243,-1.243,-1.243,-1.243,-1.243,0,-1.2768,-1.275,-1.273,-1.2701,-1.2683,-1.2671,-1.2646,-1.2632,-1.2611,-1.2588,-1.2567,-1.2539,-1.2515,-1.2487,-1.2461,-1.2451,-1.2442,-1.2445,-1.2445,-1.2441,-1.2434,-1.2439,-1.2452,-1.2452,-1.2452,-1.2452,-1.2452,-1.2452,-1.2768,-1.2749,-1.2734,-1.2705,-1.2687,-1.2664,-1.2651,-1.2633,-1.2614,-1.2584,-1.2565,-1.2547,-1.2521,-1.2493,-1.2471,-1.2463,-1.2454,-1.2459,-1.2449,-1.2443,-1.2441,-1.244,-1.2444,-1.2457,-1.2457,-1.2457,-1.2457,-1.2457]}]]